Tracking 20942 objects as of 4-Jul-2020
HD Live streaming from Space Station
objects crossing your sky now

FLOCK 4P 5

Track FLOCK 4P 5 now!
10-day predictions
FLOCK 4P 5 is classified as:


NORAD ID: 44818
Int'l Code: 2019-081Q
Perigee: 505.4 km
Apogee: 520.3 km
Inclination: 97.5 °
Period: 94.7 minutes
Semi major axis: 6883 km
RCS: Unknown
Launch date: November 27, 2019
Source: United States (US)
Launch site: SRIHARIKOTA (SRI)
aabbcc
Your satellite tracking list
Your tracking list is empty




NASA's NSSDC Master Catalog

Two Line Element Set (TLE):
1 44818U 19081Q   20186.16206891  .00000465  00000-0  24783-4 0  9997
2 44818  97.4952 247.1197 0010855 185.5649 174.5467 15.20051477 33418
Source of the keplerian elements: AFSPC